This demonstration page uses our WeatherBlox Daily Observations layout. Learn more.

Left ArrowRight Arrow

Hourly Observations for November 2, 2019

Temp ( °F °C ) Dew Point ( °F °C ) Humidity (%) Winds ( mph kmh ) Pressure ( in mb ) Visibility ( mi km ) Precip ( " mm )
12:56 am 00:56 Clear 30 -1.1 24 -4.4 79 79 WSW 6 9 30.41 1030 10 16 0.00 0.00
1:56 am 01:56 Clear 28 -2.2 22 -5.6 78 78 W 7 11 30.42 1030 10 16 0.00 0.00
2:56 am 02:56 Clear 27 -2.8 22 -5.6 81 81 WNW 8 13 30.42 1030 10 16 0.00 0.00
3:56 am 03:56 Clear 28 -2.2 22 -5.6 78 78 W 9 15 30.42 1030 10 16 0.00 0.00
4:56 am 04:56 Clear 28 -2.2 22 -5.6 78 78 W 7 11 30.41 1030 10 16 0.00 0.00
5:56 am 05:56 Clear 27 -2.8 21 -6.1 78 78 W 7 11 30.41 1030 10 16 0.00 0.00
6:56 am 06:56 Clear 27 -2.8 20 -6.7 75 75 W 8 13 30.40 1030 10 16 0.00 0.00
7:56 am 07:56 Clear 27 -2.8 20 -6.7 75 75 W 6 9 30.40 1030 10 16 0.00 0.00
8:56 am 08:56 Sunny 28 -2.2 21 -6.1 75 75 W 7 11 30.40 1030 10 16 0.00 0.00
9:56 am 09:56 Sunny 33 0.6 23 -5 66 66 W 8 13 30.40 1030 10 16 0.00 0.00
10:56 am 10:56 Sunny 36 2.2 24 -4.4 62 62 SW 6 9 30.39 1029 10 16 0.00 0.00
11:56 am 11:56 Sunny 43 6.1 25 -3.9 49 49 SW 8 13 30.36 1028 10 16 0.00 0.00
12:56 pm 12:56 Sunny 46 7.8 25 -3.9 44 44 SW 10 17 30.32 1027 10 16 0.00 0.00
1:56 pm 13:56 Sunny 49 9.4 24 -4.4 38 38 WSW 15 24 30.27 1025 10 16 0.00 0.00
2:56 pm 14:56 Sunny 52 11.1 24 -4.4 34 34 SW 18 30 30.22 1024 10 16 0.00 0.00
3:56 pm 15:56 Sunny 54 12.2 20 -6.7 26 26 W 16 26 30.19 1022 10 16 0.00 0.00
4:56 pm 16:56 Sunny 54 12.2 19 -7.2 25 25 W 14 22 30.17 1022 10 16 0.00 0.00
5:56 pm 17:56 Sunny 53 11.7 21 -6.1 28 28 SW 8 13 30.15 1021 10 16 0.00 0.00
6:56 pm 18:56 Clear 42 5.6 22 -5.6 45 45 SSW 8 13 30.15 1021 10 16 0.00 0.00
7:56 pm 19:56 Cloudy 46 7.8 23 -5 40 40 SW 7 11 30.14 1021 10 16 0.00 0.00
8:56 pm 20:56 Cloudy 47 8.3 22 -5.6 37 37 SW 8 13 30.12 1020 10 16 0.00 0.00
9:56 pm 21:56 Mostly Clear 44 6.7 22 -5.6 41 41 WNW 7 11 30.12 1020 10 16 0.00 0.00
10:56 pm 22:56 Clear 42 5.6 21 -6.1 43 43 W 7 11 30.12 1020 10 16 0.00 0.00
11:56 pm 23:56 Clear 40 4.4 22 -5.6 49 49 WSW 5 7 30.11 1020 10 16 0.00 0.00

Powered by AerisWeather